fechar
X Fechar
X Fechar

X Fechar
foto
Salvar nos Favoritos

X Fechar
foto
Clique e saiba mais
Clique e saiba mais
Clique e saiba mais
Clique e saiba mais
Clique e saiba mais
Clique e saiba mais
Clique e saiba mais

América Sports

Capacete Companhia

RM - Motocross Racing

Edgers Racing

RX Graphics

JPS Racing

Ohlins

DLua Racing

Toro Sports

Clique e saiba mais

> Notícias > Últimas Notícias

MXGP: resultados e vídeos das classificatórias na França
Publicado em: 30/05/2015

Desalle é dúvida para as provas de domingo. Febvre e Guillod mantêm o embalo das últimas etapas
Redação MotoX.com.br: Lucídio Arruda - Foto: Ray Archer


Largada da MXGP

Villars sous Ecot, na França, volta a receber uma etapa do Mundial de Motocross após 23 anos. O pequeno circuito teve uma recepção variada pelos pilotos, agradando alguns e outros não. As voltas giram em pouco mais de um minuto e meio e são poucas as possibilidades de ultrapassagens.

Os franceses Romain Febvre e Gautier Paulin foram os mais rápidos na classificatória da MXGP. Na MX2 o suíço Valentin Guillod manteve o ritmo de vitórias dos dois últimos GPs e completou a corrida com mais de dez segundos sobre Jordi Tixier. Dessa forma a Yamaha fez o primeiro lugar nas duas categorias.

Jeffrey Herlings largou mal, lutou para entrar entre os dez primeiros e então sofreu com problemas mecânicos na última volta, ficando apenas com a 24ª posição. O resultado pode complicar seu domingo, já que a chance de um gate para as largadas fica seriamente comprometida.

Na MXGP Clement Desalle foi a grande vítima deste sábado. Ele caiu na tomada de tempos e precisou "amarrar" um dos ombros para a classificatória. Largou bem na prova e chegou a ocupar a segunda posição, mas passou da recepção de uma mesa e quando se dirigia aos pits se chocou com Todd Waters e ainda foi atropelado por Nicolas Aubin. Segundo a Suzuki, o belga sofre agora também de algum desconforto no joelho, mas vai tentar largar amanhã.

Cairoli foi o oitavo depois de ter a tampa do radiador aberta por uma pedrada. O líder na pontuação Max Nagl ficou com a sexta posição.

Neste domingo você pode acompanhar a cronometragem e resultados ao vivo no link:: https://www.motox.com.br/liveresults/mundialmx/  

Cronograma (horários de Brasília)
05:05 - EMX125 Race 2
06:55 - WMX Race 2
08:00 - MX2 Race 1
09:00 - MXGP Race 1
11:00 - MX2 Race 2
12:00 - MXGP Race 2

Vídeos





Resultados

P. Nr MXGP Nat. Bike laps Diff. Prev. M.V. in lap Speed
1 461 Febvre, Romain FRA Yam 14 24:33.984 0:00.000 1:36.920 8 57.6
2 21 Paulin, Gautier FRA Hon 14 0:06.508 0:06.508 1:36.776 6 57.7
3 777 Bobryshev, Evgeny RUS Hon 14 0:12.993 0:06.485 1:37.520 8 57.2
4 89 Van Horebeek, Jeremy BEL Yam 14 0:15.117 0:02.124 1:37.992 9 56.9
5 9 de Dycker, Ken BEL KTM 14 0:19.711 0:04.594 1:37.876 9 57
6 12 Nagl, Maximilian GER Hus 14 0:21.794 0:02.083 1:38.194 9 56.8
7 24 Simpson, Shaun GBR KTM 14 0:26.732 0:04.938 1:38.938 14 56.4
8 222 Cairoli, Antonio ITA KTM 14 0:26.864 0:00.132 1:38.687 14 56.5
9 47 Waters, Todd AUS Hus 14 0:36.365 0:09.501 1:39.330 6 56.2
10 23 Charlier, Christophe FRA Hon 14 0:36.887 0:00.522 1:39.324 7 56.2
11 183 Frossard, Steven FRA KTM 14 0:39.362 0:02.475 1:39.011 6 56.4
12 20 Aranda, Gregory FRA Kaw 14 0:40.373 0:01.011 1:39.716 6 56
13 77 Lupino, Alessandro ITA Hon 14 0:42.134 0:01.761 1:38.854 7 56.4
14 19 Philippaerts, David ITA Yam 14 0:43.507 0:01.373 1:39.227 8 56.2
15 259 Coldenhoff, Glenn NED Suz 14 0:44.443 0:00.936 1:39.844 14 55.9
16 111 Ferris, Dean AUS Hus 14 0:44.898 0:00.455 1:38.529 14 56.6
17 120 Soubeyras, Cedric FRA Yam 14 0:57.546 0:12.648 1:40.058 9 55.8
18 800 Alessi, Mike USA Suz 14 0:58.818 0:01.272 1:40.344 7 55.6
19 156 Heidecke, Angus GER KTM 14 1:00.205 0:01.387 1:40.159 8 55.7
20 17 Butron, Jose ESP KTM 14 1:01.977 0:01.772 1:39.827 13 55.9
21 871 Izoird, Fabien FRA Hon 14 1:19.228 0:17.251 1:40.786 8 55.4
22 212 Dewulf, Jeffrey BEL Yam 14 1:24.708 0:05.480 1:41.962 7 54.7
23 149 Ullrich, Dennis GER Suz 14 1:30.124 0:05.416 1:41.530 6 55
24 400 Yamamoto, Kei JPN Hon 14 1:36.677 0:06.553 1:41.900 12 54.8
25 62 Gercar, Klemen SLO Hus 13 1 lap 1 lap 1:42.942 5 54.2
26 224 Jacquelin, Morgan FRA Kaw 13 1 lap 0:12.137 1:43.950 4 53.7
27 173 Bertuzzo, Pier Filippo ITA Yam 13 1 lap 0:01.418 1:43.983 8 53.7
28 515 Schaffter, Kim SUI Yam 13 1 lap 0:00.955 1:43.886 8 53.7
29 713 Guidolin, Anthony FRA Kaw 13 1 lap 0:54.519 1:46.160 6 52.6
30 121 Boog, Xavier FRA Kaw 10 4 laps 3 laps 1:38.363 8 56.7
31 28 Rattray, Tyla RSA Kaw 0 14 laps 10 laps 0:00.000   0
32 25 Desalle, Clement BEL Suz 0 14 laps 0:00.163 0:00.000   0
33 903 Aubin, Nicolas FRA Suz 0 14 laps 0:07.438 0:00.000   0

P. Nr MX2 Nat. Bike V Diff. Diff. Prev. M.V. Na V. Speed
1 92 Guillod, Valentin SUI Yam 14 24:08.603 0:00.000 1:35.049 5 58.7
2 1 Tixier, Jordi FRA Kaw 14 0:11.205 0:11.205 1:36.135 3 58
3 243 Gajser, Tim SLO Hon 14 0:13.741 0:02.536 1:36.309 6 57.9
4 41 Jonass, Pauls LAT KTM 14 0:30.070 0:16.329 1:37.461 8 57.3
5 141 Desprey, Maxime FRA Kaw 14 0:31.260 0:01.190 1:37.612 5 57.2
6 33 Lieber, Julien BEL Yam 14 0:38.583 0:07.323 1:37.518 10 57.2
7 91 Seewer, Jeremy SUI Suz 14 0:40.913 0:02.330 1:37.432 6 57.3
8 7 Graulus, Damon BEL Yam 14 0:41.651 0:00.738 1:38.374 6 56.7
9 59 Tonkov, Aleksandr RUS Hus 14 0:44.614 0:02.963 1:38.115 8 56.9
10 101 Zaragoza, Jorge ESP Hon 14 0:57.784 0:13.170 1:38.091 5 56.9
11 18 Brylyakov, Vsevolod RUS Hon 14 1:02.222 0:04.438 1:39.062 7 56.3
12 152 Petrov, Petar BUL Kaw 14 1:08.962 0:06.740 1:39.456 7 56.1
13 766 Rauchenecker, Pascal AUT KTM 14 1:11.352 0:02.390 1:39.440 5 56.1
14 29 Jacobi, Henry GER KTM 14 1:14.331 0:02.979 1:39.778 11 55.9
15 95 Justs, Roberts LAT KTM 14 1:14.923 0:00.592 1:39.907 6 55.9
16 922 Fors, Kevin BEL Yam 14 1:24.635 0:09.712 1:40.809 3 55.4
17 811 Sterry, Adam GBR KTM 14 1:25.255 0:00.620 1:40.318 8 55.6
18 51 Getteman, Jens BEL Hon 14 1:26.660 0:01.405 1:40.520 3 55.5
19 338 Herbreteau, David FRA Kaw 14 1:27.399 0:00.739 1:39.689 8 56
20 6 Paturel, Benoit FRA Yam 14 1:30.357 0:02.958 1:40.048 8 55.8
21 919 Watson, Ben GBR KTM 14 1:31.726 0:01.369 1:40.647 8 55.4
22 556 Mallet, Simon FRA Hon 14 1:33.675 0:01.949 1:41.596 6 54.9
23 110 Verhaeghe, Alexis FRA Kaw 14 1:41.106 0:07.431 1:41.721 11 54.9
24 84 Herlings, Jeffrey NED KTM 13 1 lap 1 lap 1:36.514 10 57.8
25 872 Imbert, Lucas FRA Kaw 13 1 lap 1:06.915 1:41.467 5 55
26 97 Ivanov, Maykal Grisha BUL Hus 13 1 lap 0:06.853 1:41.559 4 54.9
27 30 Hjortmarker, Eddie SWE KTM 13 1 lap 0:08.441 1:42.247 4 54.6
28 321 Bernardini, Samuele ITA TM 13 1 lap 0:03.331 1:42.363 5 54.5
29 555 Guryev, Artem RUS KTM 13 1 lap 0:00.999 1:43.051 8 54.1
30 888 Barcelo, Nicolas FRA Yam 13 1 lap 0:03.867 1:43.035 8 54.2
31 300 Golovkin, Viacheslav RUS KTM 13 1 lap 0:11.266 1:43.574 6 53.9
32 951 Aubin, Arnaud FRA Suz 13 1 lap 0:07.712 1:43.808 5 53.8
33 373 Irsuti, Yannis FRA Yam 13 1 lap 0:07.108 1:43.130 8 54.1
34 707 Kappel, Robin FRA Yam 13 1 lap 0:18.688 1:43.898 6 53.7
35 132 Kutsar, Karel EST KTM 12 2 laps 1 lap 1:45.904 2 52.7
36 99 Anstie, Max GBR Kaw 8 6 laps 4 laps 1:38.815 8 56.5
37 64 Covington, Thomas USA Kaw 3 11 laps 5 laps 1:45.063 2 53.1
38 128 Monticelli, Ivo ITA KTM 1 13 laps 2 laps 1:40.493 1 55.5











Vídeos MotoX Connect



Acompanhe o MotoX no Facebook

Curso MotoX Ric Raspa
Brasil Racing
JPS Racing

© 2000 - 2017 MotoX MX1 Internet